User: anonymous   Login
Location: Franzen
(48.6167°N, 15.3833°E)
Time: 03:12:45
(UTC+00:00)
Language:

Cosmos 1151 Rocket - Orbit

View from above orbital plane
View from above orbital plane
View from above satellite
View from above satellite

Ground track
Ground track

The orbit data is extracted from the following two-line orbital elements,

1 11672U 80005B   21174.39138729  .00000083  00000-0  63003-5 0  9995
2 11672  82.5153 134.3543 0018022 122.8112 237.4845 14.88051373220463
Epoch (UTC): 23 June 2021 09:23:35
Eccentricity: 0.0018022
inclination: 82.5153°
perigee height: 591 km
apogee height: 616 km
right ascension of ascending node: 134.3543°
argument of perigee: 122.8112°
revolutions per day: 14.88051373
mean anomaly at epoch: 237.4845°
orbit number at epoch: 22046

The dashed part of the orbit path shows where the satellite is in the earth's shadow,  

DLR